www.pogodaiklimat.ru

Погода и климат >> Архив погоды >> Россия >> Ямало-Ненецкий АО >> Антипаюта


АРХИВ ПОГОДЫ в Антипаюте

Время (UTC), дата Ветер
(напр.,м/с)
 
Видим.   Явления Облачность Т
(С)
Тd
(С)
f
(%)
Тe
(С)
Тes
(С)
Комфортность P
(гПа)
Po
(гПа)
Тmin
(С)
Tmax
(С)
R
(мм)
R24
(мм)
S
(см)
21 16.03 В 2 20 км ясно -28.4 -31.4 75 -36 -36 опасность
обморожения
1023.5 1023.0
03 17.03 Ю 3 20 км ясно -27.0 -29.9 76 -36 -35 опасность
обморожения
1023.9 1023.4 -29.0 101
06 17.03 Ю 4 20 км ясно -24.2 -26.8 79 -34 -32 опасность
обморожения
1023.8 1023.3
09 17.03 Ю 3 20 км 9/0
[Ac trans]
-21.3 -23.6 82 -29 -28 1024.1 1023.6
12 17.03 Ю 4 20 км 8/0
[Ac und]
-20.9 -23.2 82 -30 -30 1023.7 1023.2
15 17.03 Ю 5 20 км 9/0
[Ac und]
-20.6 -22.9 82 -31 -31 опасность
обморожения
1023.2 1022.7 -20.0
18 17.03 Ю 5 20 км 8/0
[Ac trans]
-20.2 -22.3 83 -30 -30 1022.8 1022.4
21 17.03 Ю 5 20 км 10/10 600 м
[Sc]
-19.1 -21.2 83 -29 -29 1022.6 1022.1
00 18.03 Ю 4 20 км 10/10 600 м
[Sc]
-19.0 -21.1 83 -28 -28 1022.4 1021.9
03 18.03 ЮВ 3 20 км 10/10 600 м
[Sc]
-17.1 -19.1 84 -24 -24 1022.2 1021.7 -20.7 101
06 18.03 Ю 4 20 км 9/0
[Ac trans]
-16.1 -18.2 84 -24 -23 1021.5 1021.0
09 18.03 Ю 5 20 км 9/0
[Ac trans]
-15.5 -17.8 82 -24 -24 1021.3 1020.8
12 18.03 Ю 4 20 км 10/0
[Ac und]
-13.6 -15.4 86 -21 -21 1020.4 1019.9
15 18.03 Ю 3 20 км 8/0
[Ac trans Ci fib]
-14.0 -15.7 87 -20 -20 1020.2 1019.7 -12.8
18 18.03 Ю 4 4000 м слаб. снег 10/10 1000 м
[Sc]
-12.4 -13.8 89 -20 -20 1019.5 1019.0
21 18.03 Ю 3 20 км {снег} 10/10 1000 м
[Sc]
-10.8 -12.0 91 -17 -17 1019.5 1019.0
00 19.03 ЮЗ 5 20 км {снег} 10/10 1000 м
[Sc]
-8.1 -9.0 93 -16 -16 1019.3 1018.8
03 19.03 ЮЗ 6 20 км позёмок 10/0
[Ac As]
-7.1 -8.1 93 -15 -15 1019.0 1018.6 -15.1 0.2 101
06 19.03 ЮЗ 6
{10}
20 км позёмок 9/0
[Ac und]
-6.6 -7.7 92 -15 -14 1019.1 1018.7
09 19.03 ЮЗ 9-11
{11}
4000 м слаб. снег {метель} 10/10 1000 м
[Sc]
-5.0 -5.8 94 -14 -14 1019.4 1019.0
12 19.03 ЮЗ 8
{12}
4000 м слаб. снег {метель} 10/10 1000 м
[Sc]
-5.7 -6.9 91 -15 -15 1019.4 1019.0
15 19.03 ЮЗ 5 20 км позёмок {снег} 10/10 1000 м
[Sc]
-7.5 -8.9 90 -15 -15 1020.1 1019.6 -4.8 0.4
18 19.03 ЮЗ 4 20 км {снег, метель} 8/0
[Cs]
-9.8 -11.2 89 -17 -17 1019.7 1019.2
21 19.03 Ю 2 20 км 10/0
[As op]
-9.8 -11.2 89 -14 -14 1019.3 1018.8
00 20.03 ЮВ 4 4000 м слаб. снег 10/0
[As op]
-9.3 -10.4 92 -16 -16 1017.7 1017.2
03 20.03 ЮВ 5 20 км {снег} 10/0
[Ac und]
-7.8 -8.8 93 -15 -15 1016.0 1015.6 -10.4 0.5 101
06 20.03 ЮВ 5 20 км {снег} 10/0
[Ac und]
-5.9 -7.2 91 -13 -13 1013.7 1013.3
09 20.03 ЮВ 5
{11}
4000 м слаб. снег {метель} 10/0
[As op]
-6.1 -7.5 90 -14 -13 1010.5 1010.1
12 20.03 Ю 7
{11}
2000 м снег {метель} 10/10 300 м
[Frnb Ns]
-4.7 -5.4 95 -13 -13 1007.1 1006.7
15 20.03 Ю 4
{10}
4000 м слаб. снег {метель} 10/0 300 м
[As op]
-3.1 -3.6 96 -9 -9 1003.9 1003.4 -3.1 3
18 20.03 ЮЗ 4 20 км {снег, метель} 10/10 1000 м
[Sc]
-3.0 -3.4 97 -9 -9 1001.1 1000.7
21 20.03 З 4 20 км 10/10 1000 м
[Sc]
-6.4 -7.1 95 -13 -13 1000.7 1000.3
00 21.03 ЮЗ 4 4000 м слаб. снег 10/10 300 м
[St]
-6.7 -7.4 95 -13 -13 1001.3 1000.9
03 21.03 З 6 4000 м слаб. снег 10/10 300 м
[St]
-3.2 -3.6 97 -11 -11 1001.6 1001.2 -11.7 0.3 102
06 21.03 З 7 20 км {снег, туман} 10/10 300 м
[St]
-2.2 -2.6 97 -10 -10 1001.7 1001.3
09 21.03 З 5 20 км 10/10 300 м
[St]
-1.9 -2.3 97 -9 -9 1002.5 1002.1
12 21.03 З 5 20 км 10/10 300 м
[St]
-2.7 -3.1 97 -10 -10 1002.9 1002.5
15 21.03 З 4 20 км 10/10 300 м
[St]
-2.8 -3.2 97 -9 -9 1003.7 1003.3 -1.8 0.2
18 21.03 СЗ 3 20 км в посл. час снег 10/10 300 м
[St]
-4.3 -4.7 97 -10 -10 1004.4 1004.0
21 21.03 С 2 20 км {ливн. осадки} 8/8 600 м
[Sc diur, vesp]
-7.4 -8.1 95 -12 -12 1004.7 1004.3
00 22.03 С 3 20 км {ливн. осадки} 4/0
[Ac trans]
-15.3 -16.7 89 -22 -22 1006.0 1005.5
03 22.03 СВ 2 20 км 6/0
[Ac trans]
-16.1 -17.7 87 -21 -21 1007.4 1006.9 -17.1 1 105
06 22.03 СВ 2 20 км ясно -13.7 -15.2 88 -18 -15 1008.0 1007.5
09 22.03 СВ 3 20 км ясно -12.9 -14.6 87 -19 -17 1010.0 1009.5
12 22.03 СВ 3 20 км ясно -16.4 -18.3 85 -23 -23 1011.4 1010.9
15 22.03 СВ 2 20 км 6/0
[Ac As]
-21.4 -23.6 82 -27 -27 1012.6 1012.1 -12.5
18 22.03 В 3 20 км 10/0
[As op]
-17.3 -19.0 87 -24 -24 1013.2 1012.7
21 22.03 СВ 3 20 км 10/0
[As op]
-13.8 -15.2 89 -20 -20 1013.5 1013.0
00 23.03 В 2 20 км 10/0
[As op]
-11.4 -12.5 92 -16 -16 1013.1 1012.7
03 23.03 В 1 20 км 10/10 210 м
[St]
-9.8 -10.8 92 -12 -12 1012.7 1012.3 -22.2 105
06 23.03 Ю 2 20 км 10/10 300 м
[St]
-7.7 -8.5 94 -12 -12 1012.1 1011.7
09 23.03 Ю 5 20 км 10/10 300 м
[St]
-9.0 -10.0 92 -17 -17 1011.9 1011.5
12 23.03 Ю 2 4000 м слаб. снег 10/10 300 м
[St]
-7.9 -8.8 93 -12 -12 1011.4 1011.0
15 23.03 Ю 3 4000 м слаб. снег 10/10 300 м
[St]
-6.5 -7.2 95 -12 -12 1010.8 1010.4 -6.3 0.3
18 23.03 З 4 20 км {снег} 9/0
[Ac As]
-11.7 -12.9 91 -19 -19 1011.0 1010.6

 

Местоположение метеостанции Антипаюта (Ямало-Ненецкий АО, Россия): широта 69.08 долгота 76.85 высота над уровнем моря 3 м.

В архиве по умолчанию представлена погода в Антипаюте за последнюю неделю. Архивные данные за месяц целиком и за предыдущие месяцы, начиная с января 2011 года, Вы можете получить, выбрав интересующий диапазон дат из раскрывающегося списка и нажав кнопку "Ввод!".


*Определитесь, кто Вы:
робот инопланетянин человек

Внимание! Время в таблицах - всемирное. Для получения местного времени необходимо прибавить поправку, которая равна 5 ч.

Смотрите также архив погоды в соседних городах и на ближайших метеорологических станциях:

Погода в Тазовском (Ямало-Ненецкий АО, Россия) (195 км)
Погода в Сеяхе (Ямало-Ненецкий АО, Россия) (207 км)
Погода в Гыде (Ямало-Ненецкий АО, Россия) (209 км)
Погода в Новом Порте (Ямало-Ненецкий АО, Россия) (225 км)
Погода в Карауле (Красноярский край, Россия) (269 км)
Погода в Ныде (Ямало-Ненецкий АО, Россия) (318 км)
Погода в Тамбее (Ямало-Ненецкий АО, Россия) (327 км)
Погода в Новом Уренгое (Ямало-Ненецкий АО, Россия) (331 км)
Погода в Уренгое (Ямало-Ненецкий АО, Россия) (354 км)
Погода в Пангодах (Ямало-Ненецкий АО, Россия) (375 км)

Пояснения к столбцам:

Ветер - указаны скорость ветра в м/с - средняя за 10 мин, порывы в срок и между сроками (в фигурных скобках) и направление, откуда дует ветер: С - северный, СВ - северо-восточный, В - восточный, ЮВ - юго-восточный, Ю - южный, ЮЗ - юго-западный, З - западный, СЗ - северо-западный.
Видимость - горизонтальная дальность видимости в метрах или километрах. При видимости от 1 до 10 км при отсутствии осадков обычно наблюдается дымка, при ухудшении видимости до 1 км и менее - туман. В сухую погоду видимость может ухудшаться дымом, пылью или мглою.
Явления - указаны атмосферные явления, наблюдавшиеся в срок или в последний час перед сроком; фигурными скобками обозначены явления, наблюдавшиеся между сроками (за 1-3 часа до срока); квадратными скобками обозначены град или гололедные отложения с указанием их диаметра в мм.
Облачность - указаны через наклонную черту общая и нижняя облачность в баллах и высота нижней границы облаков в метрах; квадратными скобками обозначены формы облаков: Ci - перистые, Cs - перисто-слоистые, Cc - перисто-кучевые, Ac - высококучевые, As - высокослоистые, Sc - слоисто-кучевые, Ns - слоисто-дождевые, Cu - кучевые, Cb - кучево-дождевые. Подробнее классификацию облаков см. в Атласе облаков (PDF).
T - Температура воздуха - температура, измеренная на высоте 2 м над землей.
Td - Температура точки росы - температура, при понижении до которой содержащийся в воздухе водяной пар достигнет насыщения.
f - Относительная влажность воздуха - влажноcть воздуха, измеренная на высоте 2 м над землей.
Te - Эффективная температура - температура, которую ощущает одетый по сезону человек в тени. Характеристика душности погоды. При расчете учитывается влияние влажности воздуха и скорости ветра на теплоощущения человека.
Tes - Эффективная температура на солнце - температура, которую ощущает человек, с поправкой на солнечный нагрев. Характеристика знойности погоды. Зависит от высоты солнца над горизонтом, облачности и скорости ветра. Ночью, в пасмурную погоду, а также при ветре 12 м/с и более поправка равна нулю.
P - Атмосферное давление - приведенное к уровню моря атмосферное давление.
Po - Атмосферное давление - измеренное на уровне метеостанции атмосферное давление.
Tmin - Минимальная температура - минимум температуры воздуха на высоте 2 м над землей.
Tmax - Максимальная температура - максимум температуры воздуха на высоте 2 м над землей.
R - Количество осадков - Количество выпавших осадков за период времени, мм. При наведении курсора мыши на число - период времени, за который выпало указанное количество осадков.
R24 - Количество осадков - Количество выпавших осадков за 24 часа, мм.
S - Снежный покров - Высота снежного покрова, см. При наведении курсора мыши на число - состояние снежного покрова и степень покрытия местности в баллах.